Change the Weather History Date:

Saturday, May 18, 2013

  Actual Average Record
Temperature  
Mean Temperature 78 °F -  
Max Temperature 84 °F 80 °F 84 °F (1998)
Min Temperature 71 °F 66 °F 60 °F (2002)
Cooling Degree Days 12    
Growing Degree Days 28 (Base 50)    
Moisture  
Dew Point 69 °F    
Average Humidity 77    
Maximum Humidity 94    
Minimum Humidity 57    
Precipitation  
Precipitation 0.03 in 0.10 in - ()
Sea Level Pressure  
Sea Level Pressure 29.98 in    
Wind  
Wind Speed 9 mph ()    
Max Wind Speed 15 mph    
Max Gust Speed -    
Visibility 7.2 miles    
Events Rain    
Averages and records for this station are not official NWS values.
T = Trace of Precipitation, MM = Missing Value Source: Averaged Metar Reports

Daily Weather History Graph

Daily Weather History Graph

Search for Another Location

Airport or City:

Trip Planner

Search our weather history database for the weather conditions in past years. The results will help you decide how hot, cold, wet, or windy it might be!

Date:

Astronomy

May. 18, 2013 Rise Set
Actual Time 6:34 AM AEST 5:52 PM AEST
Civil Twilight 6:11 AM AEST 6:15 PM AEST
Nautical Twilight 5:45 AM AEST 6:41 PM AEST
Astronomical Twilight 5:19 AM AEST 7:07 PM AEST
Moon 12:30 PM AEST (5/18) No Moon Set
Length of Visible Light 12h 03m
Length of Day
11h 17m
Waxing Crescent, 49% of the Moon is Illuminated
May 18
Waxing Crescent
May 18
First Quarter
May 25
Full
Jun 1
Last Quarter
Jun 9
New

Hourly Weather History & Observations

Time (AEST) Temp. Heat Index Dew Point Humidity Pressure Visibility Wind Dir Wind Speed Gust Speed Precip Events Conditions
12:00 AM 72 °F - 65 °F 74% 30.02 in - South 11.5 mph - -   Overcast
12:00 AM 71.6 °F - 66.2 °F 83% 30.01 in 6.2 mi South 11.5 mph - N/A   Mostly Cloudy
12:30 AM 73.4 °F - 66.2 °F 78% 30.01 in 6.2 mi SSE 11.5 mph - N/A   Mostly Cloudy
1:00 AM 72 °F - 65 °F 74% 30.01 in - SSE 15.0 mph - -  
1:00 AM 71.6 °F - 66.2 °F 83% 30.01 in 6.2 mi SSE 15.0 mph - N/A   Mostly Cloudy
1:30 AM 71.6 °F - 66.2 °F 83% 29.98 in 6.2 mi South 10.4 mph - N/A   Mostly Cloudy
2:00 AM 71.6 °F - 66.2 °F 83% 29.98 in 6.2 mi South 11.5 mph - N/A   Mostly Cloudy
2:30 AM 71.6 °F - 66.2 °F 83% 29.95 in 6.2 mi SSE 11.5 mph - N/A   Mostly Cloudy
3:00 AM 72 °F - 66 °F 75% 29.96 in - SSE 11.5 mph - -   Overcast
3:00 AM 71.6 °F - 66.2 °F 83% 29.95 in 6.2 mi SSE 11.5 mph - N/A   Overcast
3:30 AM 71.6 °F - 66.2 °F 83% 29.95 in 6.2 mi SSE 9.2 mph - N/A   Overcast
4:00 AM 72 °F - 66 °F 75% 29.96 in - SSE 9.2 mph - -  
4:00 AM 71.6 °F - 66.2 °F 83% 29.95 in 6.2 mi SSE 9.2 mph - N/A   Mostly Cloudy
5:00 AM 71.6 °F - 66.2 °F 83% 29.95 in 6.2 mi South 9.2 mph - N/A   Partly Cloudy
5:30 AM 73.4 °F - 66.2 °F 78% 29.95 in 6.2 mi South 9.2 mph - N/A   Partly Cloudy
6:00 AM 72 °F - 66 °F 75% 29.97 in 19 mi South 10.4 mph - -   Partly Cloudy
6:00 AM 71.6 °F - 66.2 °F 83% 29.95 in 6.2 mi South 10.4 mph - N/A   Mostly Cloudy
6:30 AM 73.4 °F - 66.2 °F 78% 29.95 in 6.2 mi SSE 10.4 mph - N/A   Mostly Cloudy
7:00 AM 73 °F - 66 °F 73% 29.99 in - SSE 8.1 mph - -  
7:00 AM 73.4 °F - 66.2 °F 78% 29.98 in 6.2 mi SSE 8.1 mph - N/A   Mostly Cloudy
7:30 AM 73.4 °F - 66.2 °F 78% 29.98 in 6.2 mi SSE 8.1 mph - N/A   Mostly Cloudy
8:00 AM 75.2 °F - 66.2 °F 73% 30.01 in 6.2 mi South 8.1 mph - N/A   Mostly Cloudy
8:30 AM 75.2 °F - 66.2 °F 73% 30.01 in 6.2 mi SSE 8.1 mph - N/A   Mostly Cloudy
9:00 AM 76 °F - 67 °F 67% 30.02 in 19 mi SSE 9.2 mph - -   Partly Cloudy
9:00 AM 75.2 °F - 68.0 °F 78% 30.01 in 6.2 mi SSE 9.2 mph - N/A   Mostly Cloudy
9:30 AM 75.2 °F - 68.0 °F 78% 30.01 in 6.2 mi South 9.2 mph - N/A   Mostly Cloudy
10:00 AM 76 °F - 68 °F 69% 30.03 in - South 8.1 mph - -  
10:00 AM 77.0 °F - 68.0 °F 74% 30.01 in 6.2 mi South 8.1 mph - N/A   Mostly Cloudy
10:30 AM 77.0 °F - 68.0 °F 74% 30.01 in 6.2 mi SSE 9.2 mph - N/A   Mostly Cloudy
11:00 AM 77.0 °F - 69.8 °F 78% 30.01 in 6.2 mi South 8.1 mph - N/A   Mostly Cloudy
11:30 AM 80.6 °F 83.9 °F 69.8 °F 70% 30.01 in 6.2 mi South 6.9 mph - N/A   Scattered Clouds
12:00 PM 82 °F - 70 °F 59% 29.99 in 19 mi SSE 5.8 mph - -   Partly Cloudy
12:00 PM 82.4 °F 86.3 °F 69.8 °F 66% 29.98 in 6.2 mi SSE 5.8 mph - N/A   Scattered Clouds
12:30 PM 82.4 °F 86.3 °F 69.8 °F 66% 29.95 in 6.2 mi SE 5.8 mph - N/A   Scattered Clouds
1:00 PM 83 °F - 70 °F 57% 29.96 in - ESE 4.6 mph - -  
1:00 PM 82.4 °F 86.3 °F 69.8 °F 66% 29.95 in 6.2 mi ESE 4.6 mph - N/A   Scattered Clouds
1:30 PM 82.4 °F 87.2 °F 71.6 °F 70% 29.95 in 6.2 mi NE 9.2 mph - N/A   Scattered Clouds
2:00 PM 84.2 °F 89.6 °F 71.6 °F 66% 29.92 in 6.2 mi NE 8.1 mph - N/A   Mostly Cloudy
2:30 PM 80.6 °F 84.6 °F 71.6 °F 74% 29.92 in 6.2 mi East 6.9 mph - N/A   Mostly Cloudy
3:00 PM 81 °F - 71 °F 65% 29.92 in 19 mi ENE 9.2 mph - -   Partly Cloudy
3:00 PM 80.6 °F 84.6 °F 71.6 °F 74% 29.92 in 6.2 mi ENE 9.2 mph - N/A   Mostly Cloudy
3:30 PM 80.6 °F 84.6 °F 71.6 °F 74% 29.92 in 6.2 mi ENE 10.4 mph - N/A   Mostly Cloudy
4:00 PM 80 °F - 71 °F 69% 29.93 in - ENE 8.1 mph - -  
4:00 PM 80.6 °F 84.6 °F 71.6 °F 74% 29.92 in 6.2 mi ENE 8.1 mph - N/A   Mostly Cloudy
4:30 PM 80.6 °F 84.6 °F 71.6 °F 74% 29.92 in 6.2 mi NE 4.6 mph - N/A   Mostly Cloudy
5:00 PM 80.6 °F 84.6 °F 71.6 °F 74% 29.92 in 6.2 mi SSE 5.8 mph - N/A   Mostly Cloudy
5:30 PM 78.8 °F - 71.6 °F 78% 29.92 in 6.2 mi South 6.9 mph - N/A   Mostly Cloudy
6:00 PM 78 °F - 70 °F 71% 29.95 in - South 5.8 mph - -   Overcast
6:00 PM 77.0 °F - 69.8 °F 78% 29.95 in 6.2 mi South 5.8 mph - N/A   Mostly Cloudy
6:30 PM 77.0 °F - 71.6 °F 83% 29.95 in 6.2 mi South 6.9 mph - N/A   Mostly Cloudy
7:00 PM 76 °F - 71 °F 80% 29.98 in - South 5.8 mph - -  
7:00 PM 77.0 °F - 71.6 °F 83% 29.98 in 6.2 mi South 5.8 mph - N/A   Light Drizzle
7:30 PM 75.2 °F - 71.6 °F 89% 29.98 in 6.2 mi South 8.1 mph - N/A Rain Light Rain Showers
8:00 PM 77.0 °F - 69.8 °F 78% 29.98 in 6.2 mi South 8.1 mph - N/A   Mostly Cloudy
8:30 PM 75.2 °F - 71.6 °F 89% 30.01 in 6.2 mi South 8.1 mph - N/A   Mostly Cloudy
9:00 PM 75 °F - 71 °F 83% 30.01 in - South 10.4 mph - -  
9:00 PM 75.2 °F - 71.6 °F 89% 30.01 in 6.2 mi South 10.4 mph - N/A   Mostly Cloudy
9:30 PM 75.2 °F - 69.8 °F 83% 30.01 in 6.2 mi South 9.2 mph - N/A   Overcast
10:00 PM 74 °F - 71 °F 86% 30.02 in - South 8.1 mph - -  
10:00 PM 75.2 °F - 71.6 °F 89% 30.01 in 6.2 mi South 8.1 mph - N/A Rain Light Rain
10:30 PM 73.4 °F - 71.6 °F 94% 30.01 in 6.2 mi SSE 10.4 mph - N/A Rain Light Rain Showers
11:00 PM 73.4 °F - 71.6 °F 94% 30.01 in 6.2 mi SSE 10.4 mph - N/A   Overcast
11:30 PM 73.4 °F - 71.6 °F 94% 30.01 in 6.2 mi South 8.1 mph - N/A Rain Light Rain Showers